Preview of NWS' New Version of Forecast
This preview is not operational and should not be used for support decisions.

Regional Weather Roundup (RWR)

Issued by Grand Forks, ND (FGF)

                            
000
ASUS43 KFGF 220510
RWRFGF
PRAIRIE TO PINES  WEATHER ROUNDUP
NATIONAL WEATHER SERVICE EASTERN NORTH DAKOTA/GRAND FORKS ND
1100 PM CST MON JAN 21 2019

 **SATELLITE DATA USED TO AUGMENT SKY COVER AT AUTOMATED STATIONS**
 *****  WEATHER ACROSS EASTERN NORTH DAKOTA  *****
  
CITY           SKY/WX    TMP DP  RH WIND       PRES   REMARKS
GRAND FORKS    LGT SNOW  10   7  87 SE6       30.07S FOG     WCI   0  
GRAND FRKS AFB LGT SNOW  10   7  85 SE3       30.09S VSB 1            
GRAND FRKS NWS   N/A     10   9  97 SE6       30.04S WCI   0          
DEVILS LAKE    LGT SNOW   7   4  87 CALM      30.02S FOG              
FARGO          LGT SNOW  12   9  87 E5        30.04S VSB 3/4 WCI   4  
WAHPETON ARPT  CLOUDY    14   9  79 SE15      30.02R WCI  -1          
$$

 ***** WEATHER ACROSS CENTRAL AND WESTERN NORTH DAKOTA  *****
  
CITY           SKY/WX    TMP DP  RH WIND       PRES   REMARKS
BISMARCK       LGT SNOW  10   6  84 N8        29.99R FOG     WCI  -2  
MINOT          CLOUDY    10   6  84 NW5       30.01R WCI   2          
JAMESTOWN      LGT SNOW   9   6  88 NE5       29.97S FOG     WCI   1  
MINOT AFB      FAIR       0  -5  82 NW5       30.00S WCI -10          
GARRISON         N/A     10   8  92 N3        29.98R                  
WILLISTON      CLOUDY    10   4  76 SE3       30.05R                  
DICKINSON      CLOUDY    12   8  84 N6        29.93R FOG     WCI   3  
HETTINGER      LGT SNOW  11   8  88 N9        29.93R VSB 1   WCI  -2  
$$

 *****  OTHER AIRPORT OBSERVATIONS IN OUR AREA  *****
  
CITY           SKY/WX    TMP DP  RH WIND       PRES   REMARKS
WALHALLA         N/A     12   9  85 S3        30.06S                  
GRAFTON AIRPOR FAIR      10   9  92 S7        30.10S FOG     WCI   0  
VALLEY CITY AR LGT SNOW   9   9 100 NE6       30.01R WCI  -1          
CANDO          CLOUDY     9   5  85 W5        30.04R WCI   0          
CAVALIER APRT  LGT SNOW  10   7  85 S3        30.07S                  
GWINNER          N/A     12  10  92 E10       29.97S FOG     WCI  -1  
ROLLA          CLOUDY     9   5  85 W6        29.98S WCI  -1          
 ***** THE ABOVE OBSERVATIONS ARE NON NWS ARE NOT QUALITY
       CONTROLLED AND MAY MIS-REPORT RAIN FOR SNOW...
$$

  *****  WEATHER ACROSS NORTHERN MINNESOTA  *****     
  
CITY           SKY/WX    TMP DP  RH WIND       PRES   REMARKS
FLAG ISLAND    FLURRIES  10   7  85 S12       30.07S WCI  -4          
WARROAD        LGT SNOW  10   7  85 CALM      30.08S                  
ROSEAU         LGT SNOW  12   7  79 S3        30.08R                  
HALLOCK        LGT SNOW  12   9  85 CALM      30.08S                  
THF RVR FALLS  LGT SNOW   9   7  92 SE6       30.07S FOG     WCI  -1  
BAUDETTE       LGT SNOW  10   6  84 S6        30.06F FOG     WCI   0  
WASKISH        LGT SNOW  10   7  85 S3        30.07S                  
CROOKSTON      NOT AVBL                                               
STEPHEN NDAWN    N/A     10   9  92 S3          N/A                   
GREENBUSH NDAW   N/A     10   7  85 CALM        N/A                   
$$
  *****  WEATHER ACROSS CENTRAL AND WEST MINNESOTA  *****     
  
CITY           SKY/WX    TMP DP  RH WIND       PRES   REMARKS
FOSSTON        MIX PCPN   9   3  78 CALM      30.05S                  
BEMIDJI        LGT SNOW   9   5  85 SE7       30.04S WCI  -3          
PARK RAPIDS    LGT SNOW  10   7  87 SE5       30.02S FOG     WCI   2  
ELBOW LAKE     FLURRIES  13   8  79 E12G17    30.00S WCI  -1          
WADENA         LGT SNOW  10   7  85 SE7       30.01S WCI   0          
DETROIT LAKES  LGT SNOW  12   9  85 SE8       30.02R WCI   1          
MOORHEAD       LGT SNOW  10   9  92 CALM      30.05S                  
FERGUS FALLS   LGT SNOW  12   9  85 SE10      30.02S WCI  -1          
MORRIS MN      LGT SNOW  12   7  79 SE17      29.99S WCI  -5          
STAPLES        LGT SNOW  10   7  85 SE7       30.02F WCI   0          
$$
  *****  WEATHER ELSEWHERE ACROSS MINNESOTA  *****     
  
CITY           SKY/WX    TMP DP  RH WIND       PRES   REMARKS
DULUTH         LGT SNOW  16   6  65 SE13      30.09F WCI   2          
INTRNTL FALLS  LGT SNOW  10   7  87 SE5       30.11S FOG     WCI   2  
ELY            FLURRIES  12   3  67 SE5       30.11F WCI   4          
CLOQUET        NOT AVBL                                               
WHEATON        LGT SNOW  12   9  85 SE18      30.01S WCI  -5          
BRAINERD       LGT SNOW  14   7  73 SE6       30.05F VSB 3/4 WCI   5  
HIBBING        LGT SNOW   9   5  84 SE5       30.09F FOG     WCI   1  
ALEXANDRIA     CLOUDY    15   6  67 SE13G22   29.99F WCI   1          
SAINT CLOUD    CLOUDY    15   6  67 SE13      30.05F WCI   1          
MINNEAPOLIS    CLOUDY    17   6  62 SE15G22   30.09F WCI   2          
$$

  *****  WEATHER ACROSS SOUTH DAKOTA  *****
  
CITY           SKY/WX    TMP DP  RH WIND       PRES   REMARKS
SIOUX FALLS    LGT SNOW  17  15  92 SE10      29.86S FOG     WCI   5  
BROOKINGS      LGT SNOW  14  12  92 SE13      29.88R FOG     WCI   0  
WATERTOWN      LGT SNOW  12   9  87 SE7       29.87S FOG     WCI   1  
HURON          LGT SNOW  18  15  88 SE8       29.87R FOG     WCI   8  
SISSETON         N/A     12   9  87 SE15      29.95F WCI  -4          
ABERDEEN       LGT SNOW  13  10  88 NE5       29.93R FOG     WCI   5  
MITCHELL       CLOUDY    20  17  88 S7        29.86R FOG     WCI  11  
PIERRE         LGT SNOW  16  15  96 N12       29.85R FOG     WCI   3  
MOBRIDGE       LGT SNOW  15   9  76 N13       29.87R WCI   1          
RAPID CITY     LGT SNOW  15  10  80 N29G40    29.83R WCI  -5          
$$

  *****  SOME WEATHER IN NEARBY STATES *****
  
CITY           SKY/WX    TMP DP  RH WIND       PRES   REMARKS
GLASGOW MT     CLOUDY    22  17  81 NW16      30.11R WCI   8          
GREAT FALLS MT CLOUDY    19  18  95 SW10      30.16R WCI   7          
CHEYENNE WY    CLOUDY    20  16  84 N25G37    29.69R FOG     WCI   2  
SCOTTSBLUFF NE LGT SNOW  22  19  89 N13G21    29.79R FOG     WCI  10  
OMAHA NE       CLOUDY    24  16  71 SE16      29.83F WCI  11          
DES MOINES IA  FLURRIES  19  12  74 SE17G24   29.98F WCI   4          
DAVENPORT IA   FAIR      14   6  70 SE18G28   30.18S WCI  -3          
CHICAGO IL     CLOUDY    12  -2  53 SE13      30.35F WCI  -3          
EAU CLAIRE WI  CLOUDY    16   4  59 SE10G24   30.16F WCI   4          
LA CROSSE WI   MOCLDY    18   2  49 SE14G21   30.18F WCI   4          
$$

  *****  SOME NATIONAL WEATHER *****
  
CITY           SKY/WX    TMP DP  RH WIND       PRES   REMARKS
LA GUARDIA NY  FAIR      15   2  56 NW21G31   30.40R WCI  -2          
RALEIGH NC     FAIR      19   8  62 CALM      30.56R                  
ATLANTA GA     MOCLDY    35  13  40 SE7       30.42R                  
NEW ORLEANS LA MOCLDY    52  46  80 E7        30.26S                  
OKLAHOMA CITY  MOCLDY    46  40  79 S24G35    29.72F                  
ALBUQUERQUE NM MOCLDY    39  26  59 N10       29.76R                  
SALT LAKE CITY FAIR      29  23  78 N13       30.05R WCI  19          
LOS ANGELES CA FAIR      56  32  40 NW14      30.11R                  
BOISE ID       FAIR      30  21  69 NW10      30.29R WCI  21          
SEATTLE WA     MOCLDY    40  34  79 SE12      30.40S                  
$$

*** WEATHER ACROSS MANITOBA...SASKATCHEWAN AND ONTARIO ***
                ***ONTARIO***
  
CITY           SKY/WX    TMP DP  RH WIND       PRES   REMARKS
GERALDTON      MOCLDY    12   5  73 SW7       30.17F WCI   2          
THUNDER BAY    MOCLDY     5   1  85 N2        30.23F                  
SIOUX LOOKOUT  FLURRIES  10   1  67 S8        30.08F WCI  -1          
TORONTO        PTCLDY     5  -6  61 N3        30.55R                  
BIG TROUT LK   LGT SNOW   7   3  85 W8G17     29.97S WCI  -6          
PICKLE LAKE    NOT AVBL                                               
DRYDEN         FLURRIES   9   3  78 SW10      30.06F WCI  -6          
KENORA         FLURRIES   9   3  78 S7        30.06S WCI  -3          
$$      
                *** MANITOBA***
  
CITY           SKY/WX    TMP DP  RH WIND       PRES   REMARKS
BRANDON        CLOUDY     1  -4  78 W8        30.02R WCI -12          
DAUPHIN        FLURRIES  14   9  79 W10       30.03R WCI   1          
ISLAND LAKE    CLOUDY     5   1  85 W6        29.97S WCI  -6          
PILOT MOUND      N/A      9   5  85 SW8         N/A  WCI  -4          
THE PAS        FLURRIES   5   1  85 W8        30.01S WCI  -8          
THOMPSON       FLURRIES  -2  -8  78 NW7       29.99R WCI -16          
WINNIPEG       CLOUDY    10   5  79 S12       30.07S WCI  -4          
LYNN LAKE      MOCLDY    -6  -9  84 W5        29.96S WCI -17          
CHURCHILL      CRYSTALS -18 -22  83 NW10      30.02R WCI -39          
GILLAM         FLURRIES   1  -6  71 NW7       29.95S WCI -11          
$$
                ***SASKATCHEWAN***
  
CITY           SKY/WX    TMP DP  RH WIND       PRES   REMARKS
ESTEVAN        LGT SNOW  14  12  92 NW20G25   30.02S WCI  -3          
KINDERSLEY     FOG        9   7  92 SW8       30.07S VSB 3/8 WCI  -4  
LLOYDMINSTER   CLOUDY    18  14  86 S7        30.01F WCI   8          
PRINCE ALBERT  FLURRIES   7   1  78 CALM      30.09S                  
REGINA         PTCLDY    10   7  85 NW14      30.08R WCI  -5          
YORKTON        LGT SNOW  12   9  85 MISG      30.03R                  
N. BATTLEFORD  CLOUDY     5   1  85 CALM      30.10R                  
LA RONGE       CLOUDY     5   0  78 NW9       30.06R WCI  -9          
SASKATOON      PTCLDY     0  -4  85 W8        30.11R WCI -15          
SWIFT CURRENT  MOCLDY    21  19  93 W13       30.07R WCI   9          
$$
NOTE: THESE ARE AUTOMATED STATIONS WITH LIMITED QUALITY CONTROL
      "FAIR" INDICATES FEW OR NO CLOUDS BELOW 12,000 FEET WITH NO
      SIGNIFICANT WEATHER AND/OR OBSTRUCTIONS TO VISIBILITY.
      SKY/WX - SKY CONDITION AND SIGNIFICANT WEATHER.
      TMP - AIR TEMPERATURE.    DP   - DEWPOINT TEMPERATURE.
      RH  - RELATIVE HUMIDITY.  PRES - PRESSURE.
      HX  - HEAT INDEX.         WCI  - WIND CHILL INDEX.
$